SCP
0 0 0 0 0 0 0 0 0 0 0 0 0 0 0 0 0 0 0 0 0 0
0 0 0 0 0 0 0 0 0 0 0 0 0 0 0 0 0 0 0 0 0 0
0 0 0 0 0 0 0 0 0 0 0 0 0 0 0 0 0 0 0 0 0 0
0 0 0 0 0 0 0 0 0 0 0 0 0 0 0 0 0 0 0 0 0 0
0 0 0 0 0 0 0 0 0 0 0 0 0 0 0 0 0 0 0 0 0 0
0 0 0 0 0 0 0 0 0 0 0 0 0 0 0 0 0 0 0 0 0 0
0 0 0 0 0 0 0 0 0 0 0 0 0 0 0 0 0 0 0 0 0 0
0 0 0 0 0 0 0 0 0 0 0 0 0 0 0 0 0 0 0 0 0 0
0 0 0 0 0 0 0 0 0 0 0 0 0 0 0 0 0 0 0 0 0 0
0 0 0 0 0 0 0 0 0 0 0 0 0 0 0 0 0 0 0 0 0 0
0 0 0 0 0 0 0 0 0 0 0 0 0 0 0 0 0 0 0 0 0 0
0 0 0 0 0 0 0 0 0 0 0 0 0 0 0 0 0 0 0 0 0 0
0 0 0 0 0 0 0 0 0 0 0 0 0 0 0 0 0 0 0 0 0 0
0 0 0 0 0 0 0 0 0 0 0 0 0 0 0 0 0 0 0 0 0 0
Wind_Speed_500mb
77 77 77 77 81 84 86 85 79 86 83 78 76 78 80 79 79 79 77 76 74 70
69 72 74 73 75 83 87 82 78 90 83 74 73 79 82 80 83 79 76 72 68 59
53 58 67 75 77 78 91 87 83 90 72 73 72 81 82 81 78 72 66 60 56 52
59 59 63 67 73 77 85 83 86 73 56 65 73 75 65 59 57 45 39 33 33 33
49 51 55 60 66 72 65 59 54 44 49 60 58 50 42 30 28 31 35 28 40 47
31 27 26 24 26 26 24 21 22 21 24 23 20 12 11 13 14 17 18 12 14 26
17 19 21 24 25 25 21 19 16 15 15 10 4 6 12 15 16 16 19 21 21 22
48 47 45 44 42 42 41 41 38 34 32 28 21 16 9 9 11 14 17 19 23 27
59 56 55 51 50 47 44 41 36 33 29 25 22 17 16 17 18 18 18 18 19 23
56 55 52 48 47 45 44 40 38 34 32 33 32 26 23 23 24 26 27 28 28 29
53 52 48 46 48 45 42 40 38 37 37 36 41 38 32 31 30 30 31 35 38 40
52 50 46 45 44 45 42 42 44 44 40 44 47 47 44 38 40 41 43 45 47 50
56 54 53 50 49 47 44 44 42 43 45 44 45 47 50 49 46 46 49 51 54 56
55 54 51 48 47 45 42 40 42 42 43 45 48 52 52 52 54 56 56 58 60 62
Wind_Direction_500mb
230 235 241 244 242 241 240 241 244 243 247 248 247 245 242 243 246 251 253 253 252 249
234 238 243 244 245 250 248 246 253 250 249 251 252 249 246 248 249 251 251 247 245 248
243 251 254 254 253 259 254 246 258 253 249 253 250 245 243 246 248 248 245 242 247 245
236 237 240 246 253 253 254 250 254 255 250 246 241 241 241 243 243 244 238 238 239 239
231 234 242 249 253 255 254 256 248 239 237 235 234 237 235 232 233 237 247 243 239 248
227 228 241 255 278 297 281 289 271 257 232 239 230 232 251 243 228 224 219 222 250 266
66 62 71 72 73 69 61 68 64 75 86 91 95 164 228 242 239 241 266 268 286 311
79 80 82 82 81 82 83 88 93 98 96 95 93 80 43 360 339 331 326 323 312 307
86 85 84 85 85 87 84 85 84 81 80 75 63 41 25 18 12 5 355 347 338 331
85 84 85 86 85 85 85 86 85 81 73 64 59 48 35 20 12 5 1 1 360 356
87 87 86 83 81 80 78 77 77 69 58 52 54 53 52 43 37 28 23 17 10 3
86 88 87 83 81 78 76 73 66 62 56 49 46 45 45 36 32 29 25 20 13 7
80 80 78 78 75 73 69 66 60 55 50 48 46 43 41 34 30 26 22 17 10 5
77 74 73 74 71 67 65 63 60 56 53 47 43 40 34 30 24 20 14 8 1 356
Wind_Speed_850mb
77 77 77 77 81 84 86 85 79 86 83 78 76 78 80 79 79 79 77 76 74 70
69 72 74 73 75 83 87 82 78 90 83 74 73 79 82 80 83 79 76 72 68 59
53 58 67 75 77 78 91 87 83 90 72 73 72 81 82 81 78 72 66 60 56 52
59 59 63 67 73 77 85 83 86 73 56 65 73 75 65 59 57 45 39 33 33 33
49 51 55 60 66 72 65 59 54 44 49 60 58 50 42 30 28 31 35 28 40 47
31 27 26 24 26 26 24 21 22 21 24 23 20 12 11 13 14 17 18 12 14 26
17 19 21 24 25 25 21 19 16 15 15 10 4 6 12 15 16 16 19 21 21 22
48 47 45 44 42 42 41 41 38 34 32 28 21 16 9 9 11 14 17 19 23 27
59 56 55 51 50 47 44 41 36 33 29 25 22 17 16 17 18 18 18 18 19 23
56 55 52 48 47 45 44 40 38 34 32 33 32 26 23 23 24 26 27 28 28 29
53 52 48 46 48 45 42 40 38 37 37 36 41 38 32 31 30 30 31 35 38 40
52 50 46 45 44 45 42 42 44 44 40 44 47 47 44 38 40 41 43 45 47 50
56 54 53 50 49 47 44 44 42 43 45 44 45 47 50 49 46 46 49 51 54 56
55 54 51 48 47 45 42 40 42 42 43 45 48 52 52 52 54 56 56 58 60 62
Wind_Direction_850mb
230 235 241 244 242 241 240 241 244 243 247 248 247 245 242 243 246 251 253 253 252 249
234 238 243 244 245 250 248 246 253 250 249 251 252 249 246 248 249 251 251 247 245 248
243 251 254 254 253 259 254 246 258 253 249 253 250 245 243 246 248 248 245 242 247 245
236 237 240 246 253 253 254 250 254 255 250 246 241 241 241 243 243 244 238 238 239 239
231 234 242 249 253 255 254 256 248 239 237 235 234 237 235 232 233 237 247 243 239 248
227 228 241 255 278 297 281 289 271 257 232 239 230 232 251 243 228 224 219 222 250 266
66 62 71 72 73 69 61 68 64 75 86 91 95 164 228 242 239 241 266 268 286 311
79 80 82 82 81 82 83 88 93 98 96 95 93 80 43 360 339 331 326 323 312 307
86 85 84 85 85 87 84 85 84 81 80 75 63 41 25 18 12 5 355 347 338 331
85 84 85 86 85 85 85 86 85 81 73 64 59 48 35 20 12 5 1 1 360 356
87 87 86 83 81 80 78 77 77 69 58 52 54 53 52 43 37 28 23 17 10 3
86 88 87 83 81 78 76 73 66 62 56 49 46 45 45 36 32 29 25 20 13 7
80 80 78 78 75 73 69 66 60 55 50 48 46 43 41 34 30 26 22 17 10 5
77 74 73 74 71 67 65 63 60 56 53 47 43 40 34 30 24 20 14 8 1 356